Time,TemperatureF,DewpointF,PressureIn,WindDirection,WindDirectionDegrees,WindSpeedMPH,WindSpeedGustMPH,Humidity,HourlyPrecipIn,Conditions,Clouds,dailyrainin,SolarRadiationWatts/m^2,SoftwareType,DateUTC
2013-01-11 00:04:00,48.0,44.0,-100.00,SE,129,7.0,9.0,87,0.00,,,0.01,0.000000,,2013-01-11 05:04:00,
2013-01-11 00:33:00,53.0,48.0,-100.00,SE,145,10.0,13.0,82,0.00,,,0.01,0.000000,,2013-01-11 05:33:00,
2013-01-11 00:43:00,53.0,48.0,-100.00,SE,145,10.0,13.0,82,0.00,,,0.01,0.000000,,2013-01-11 05:43:00,
2013-01-11 00:53:00,53.0,48.0,-100.00,SE,145,10.0,13.0,82,0.00,,,0.01,0.000000,,2013-01-11 05:53:00,
2013-01-11 01:03:00,53.0,48.0,-100.00,SE,145,10.0,13.0,82,0.00,,,0.01,0.000000,,2013-01-11 06:03:00,
2013-01-11 01:33:00,56.0,48.0,-100.00,SSE,156,8.0,18.0,75,0.00,,,0.01,0.000000,,2013-01-11 06:33:00,
2013-01-11 01:42:00,56.0,48.0,-100.00,SSE,156,8.0,18.0,75,0.00,,,0.01,0.000000,,2013-01-11 06:42:00,
2013-01-11 01:52:00,56.0,48.0,-100.00,SSE,156,8.0,18.0,75,0.00,,,0.01,0.000000,,2013-01-11 06:52:00,
2013-01-11 02:02:00,56.0,48.0,-100.00,SSE,156,8.0,18.0,75,0.00,,,0.01,0.000000,,2013-01-11 07:02:00,
2013-01-11 02:32:00,55.0,48.0,-100.00,SE,140,7.0,13.0,78,0.00,,,-99.99,0.000000,,2013-01-11 07:32:00,
2013-01-11 02:42:00,55.0,48.0,-100.00,SE,140,7.0,13.0,78,0.00,,,-99.99,0.000000,,2013-01-11 07:42:00,
2013-01-11 02:52:00,55.0,48.0,-100.00,SE,140,7.0,13.0,78,0.00,,,-99.99,0.000000,,2013-01-11 07:52:00,
2013-01-11 03:02:00,55.0,48.0,-100.00,SE,140,7.0,13.0,78,0.00,,,-99.99,0.000000,,2013-01-11 08:02:00,
2013-01-11 03:32:00,56.0,48.0,-100.00,SSE,150,8.0,14.0,75,0.00,,,0.01,0.000000,,2013-01-11 08:32:00,
2013-01-11 03:42:00,56.0,48.0,-100.00,SSE,150,8.0,14.0,75,0.00,,,0.01,0.000000,,2013-01-11 08:42:00,
2013-01-11 03:53:00,56.0,48.0,-100.00,SSE,150,8.0,14.0,75,0.00,,,0.01,0.000000,,2013-01-11 08:53:00,
2013-01-11 04:02:00,56.0,48.0,-100.00,SSE,150,8.0,14.0,75,0.00,,,0.01,0.000000,,2013-01-11 09:02:00,
2013-01-11 04:32:00,56.0,51.0,-100.00,SE,135,11.0,15.0,83,0.02,,,0.03,0.000000,,2013-01-11 09:32:00,
2013-01-11 04:42:00,56.0,51.0,-100.00,SE,135,11.0,15.0,83,0.02,,,0.03,0.000000,,2013-01-11 09:42:00,
2013-01-11 04:52:00,56.0,51.0,-100.00,SE,135,11.0,15.0,83,0.02,,,0.03,0.000000,,2013-01-11 09:52:00,
2013-01-11 05:02:00,56.0,51.0,-100.00,SE,135,11.0,15.0,83,0.02,,,0.03,0.000000,,2013-01-11 10:02:00,
2013-01-11 05:32:00,55.0,50.0,-100.00,SSE,148,10.0,16.0,83,0.01,,,0.04,0.000000,,2013-01-11 10:32:00,
2013-01-11 05:43:00,55.0,50.0,-100.00,SSE,148,10.0,16.0,83,0.01,,,0.04,0.000000,,2013-01-11 10:43:00,
2013-01-11 05:53:00,55.0,50.0,-100.00,SSE,148,10.0,16.0,83,0.01,,,0.04,0.000000,,2013-01-11 10:53:00,
2013-01-11 06:03:00,55.0,50.0,-100.00,SSE,148,10.0,16.0,83,0.01,,,0.04,0.000000,,2013-01-11 11:03:00,
2013-01-11 06:33:00,56.0,51.0,-100.00,SE,143,9.0,16.0,82,0.00,,,0.04,0.000000,,2013-01-11 11:33:00,
2013-01-11 06:43:00,56.0,51.0,-100.00,SE,143,9.0,16.0,82,0.00,,,0.04,0.000000,,2013-01-11 11:43:00,
2013-01-11 06:53:00,56.0,51.0,-100.00,SE,143,9.0,16.0,82,0.00,,,0.04,0.000000,,2013-01-11 11:53:00,
2013-01-11 07:03:00,56.0,51.0,-100.00,SE,143,9.0,16.0,82,0.00,,,0.04,0.000000,,2013-01-11 12:03:00,
2013-01-11 07:33:00,56.0,50.0,-100.00,SSE,159,10.0,20.0,80,0.00,,,-99.99,0.000000,,2013-01-11 12:33:00,
2013-01-11 07:43:00,56.0,50.0,-100.00,SSE,159,10.0,20.0,80,0.00,,,-99.99,0.000000,,2013-01-11 12:43:00,
2013-01-11 07:53:00,56.0,50.0,-100.00,SSE,159,10.0,20.0,80,0.00,,,-99.99,0.000000,,2013-01-11 12:53:00,
2013-01-11 08:03:00,56.0,50.0,-100.00,SSE,159,10.0,20.0,80,0.00,,,-99.99,0.000000,,2013-01-11 13:03:00,
2013-01-11 08:33:00,57.0,51.0,-100.00,South,174,9.0,20.0,79,0.00,,,-99.99,1.000000,,2013-01-11 13:33:00,
2013-01-11 08:43:00,57.0,51.0,-100.00,South,174,9.0,20.0,79,0.00,,,-99.99,1.000000,,2013-01-11 13:43:00,
2013-01-11 08:53:00,57.0,51.0,-100.00,South,174,9.0,20.0,79,0.00,,,-99.99,1.000000,,2013-01-11 13:53:00,
2013-01-11 09:03:00,57.0,51.0,-100.00,South,174,9.0,20.0,79,0.00,,,-99.99,1.000000,,2013-01-11 14:03:00,
2013-01-11 09:33:00,56.0,53.0,-100.00,South,182,12.0,22.0,91,0.01,,,0.04,28.000000,,2013-01-11 14:33:00,
2013-01-11 09:43:00,56.0,53.0,-100.00,South,182,12.0,22.0,91,0.01,,,0.04,28.000000,,2013-01-11 14:43:00,
2013-01-11 09:53:00,56.0,53.0,-100.00,South,182,12.0,22.0,91,0.01,,,0.04,28.000000,,2013-01-11 14:53:00,
2013-01-11 10:03:00,56.0,53.0,-100.00,South,182,12.0,22.0,91,0.01,,,0.04,28.000000,,2013-01-11 15:03:00,
2013-01-11 10:33:00,56.0,55.0,-100.00,WSW,249,3.0,19.0,97,0.18,,,0.22,20.000000,,2013-01-11 15:33:00,
2013-01-11 10:43:00,56.0,55.0,-100.00,WSW,249,3.0,19.0,97,0.18,,,0.22,20.000000,,2013-01-11 15:43:00,
2013-01-11 10:53:00,56.0,55.0,-100.00,WSW,249,3.0,19.0,97,0.18,,,0.22,20.000000,,2013-01-11 15:53:00,
2013-01-11 11:03:00,56.0,55.0,-100.00,WSW,249,3.0,19.0,97,0.18,,,0.22,20.000000,,2013-01-11 16:03:00,
2013-01-11 11:33:00,55.0,54.0,-100.00,WSW,251,7.0,16.0,97,0.19,,,0.41,22.000000,,2013-01-11 16:33:00,
2013-01-11 11:43:00,55.0,54.0,-100.00,WSW,251,7.0,16.0,97,0.19,,,0.41,22.000000,,2013-01-11 16:43:00,
2013-01-11 11:53:00,55.0,54.0,-100.00,WSW,251,7.0,16.0,97,0.19,,,0.41,22.000000,,2013-01-11 16:53:00,
2013-01-11 12:03:00,55.0,54.0,-100.00,WSW,251,7.0,16.0,97,0.19,,,0.41,22.000000,,2013-01-11 17:03:00,
2013-01-11 12:33:00,56.0,55.0,-100.00,WSW,248,10.0,19.0,96,0.07,,,0.48,64.000000,,2013-01-11 17:33:00,
2013-01-11 12:43:00,56.0,55.0,-100.00,WSW,248,10.0,19.0,96,0.07,,,0.48,64.000000,,2013-01-11 17:43:00,
2013-01-11 12:53:00,56.0,55.0,-100.00,WSW,248,10.0,19.0,96,0.07,,,0.48,64.000000,,2013-01-11 17:53:00,
2013-01-11 13:04:00,56.0,55.0,-100.00,WSW,248,10.0,19.0,96,0.07,,,0.48,64.000000,,2013-01-11 18:04:00,
2013-01-11 13:33:00,59.0,57.0,-100.00,SW,231,12.0,23.0,92,0.02,,,0.50,210.000000,,2013-01-11 18:33:00,
2013-01-11 13:43:00,59.0,57.0,-100.00,SW,231,12.0,23.0,92,0.02,,,0.50,210.000000,,2013-01-11 18:43:00,
2013-01-11 13:53:00,59.0,57.0,-100.00,SW,231,12.0,23.0,92,0.02,,,0.50,210.000000,,2013-01-11 18:53:00,
2013-01-11 14:03:00,59.0,57.0,-100.00,SW,231,12.0,23.0,92,0.02,,,0.50,210.000000,,2013-01-11 19:03:00,
2013-01-11 14:33:00,62.0,57.0,-100.00,SW,229,10.0,19.0,85,0.00,,,0.50,268.000000,,2013-01-11 19:33:00,
2013-01-11 14:43:00,62.0,57.0,-100.00,SW,229,10.0,19.0,85,0.00,,,0.50,268.000000,,2013-01-11 19:43:00,
2013-01-11 14:54:00,62.0,57.0,-100.00,SW,229,10.0,19.0,85,0.00,,,0.50,268.000000,,2013-01-11 19:54:00,
2013-01-11 15:03:00,62.0,57.0,-100.00,SW,229,10.0,19.0,85,0.00,,,0.50,268.000000,,2013-01-11 20:03:00,
2013-01-11 15:33:00,64.0,58.0,-100.00,SSW,213,9.0,20.0,80,0.00,,,0.50,359.000000,,2013-01-11 20:33:00,
2013-01-11 15:43:00,64.0,58.0,-100.00,SSW,213,9.0,20.0,80,0.00,,,0.50,359.000000,,2013-01-11 20:43:00,
2013-01-11 15:53:00,64.0,58.0,-100.00,SSW,213,9.0,20.0,80,0.00,,,0.50,359.000000,,2013-01-11 20:53:00,
2013-01-11 16:03:00,64.0,58.0,-100.00,SSW,213,9.0,20.0,80,0.00,,,0.50,359.000000,,2013-01-11 21:03:00,
2013-01-11 16:33:00,64.0,58.0,-100.00,SW,236,10.0,18.0,80,0.00,,,0.50,169.000000,,2013-01-11 21:33:00,
2013-01-11 16:43:00,64.0,58.0,-100.00,SW,236,10.0,18.0,80,0.00,,,0.50,169.000000,,2013-01-11 21:43:00,
2013-01-11 16:53:00,64.0,58.0,-100.00,SW,236,10.0,18.0,80,0.00,,,0.50,169.000000,,2013-01-11 21:53:00,
2013-01-11 17:03:00,64.0,58.0,-100.00,SW,236,10.0,18.0,80,0.00,,,0.50,169.000000,,2013-01-11 22:03:00,
2013-01-11 17:33:00,63.0,57.0,-100.00,SW,226,9.0,20.0,81,0.00,,,0.50,90.000000,,2013-01-11 22:33:00,
2013-01-11 17:43:00,63.0,57.0,-100.00,SW,226,9.0,20.0,81,0.00,,,0.50,90.000000,,2013-01-11 22:43:00,
2013-01-11 17:53:00,63.0,57.0,-100.00,SW,226,9.0,20.0,81,0.00,,,0.50,90.000000,,2013-01-11 22:53:00,
2013-01-11 18:02:00,63.0,57.0,-100.00,SW,226,9.0,20.0,81,0.00,,,0.50,90.000000,,2013-01-11 23:02:00,
2013-01-11 18:33:00,61.0,56.0,-100.00,SW,220,6.0,11.0,84,0.00,,,0.50,6.000000,,2013-01-11 23:33:00,
2013-01-11 18:43:00,61.0,56.0,-100.00,SW,220,6.0,11.0,84,0.00,,,0.50,6.000000,,2013-01-11 23:43:00,
2013-01-11 18:54:00,61.0,56.0,-100.00,SW,220,6.0,11.0,84,0.00,,,0.50,6.000000,,2013-01-11 23:54:00,
2013-01-11 19:03:00,61.0,56.0,-100.00,SW,220,6.0,11.0,84,0.00,,,0.50,6.000000,,2013-01-12 00:03:00,
2013-01-11 19:33:00,59.0,56.0,-100.00,SSW,199,6.0,9.0,91,0.00,,,0.50,0.000000,,2013-01-12 00:33:00,
2013-01-11 19:43:00,59.0,56.0,-100.00,SSW,199,6.0,9.0,91,0.00,,,0.50,0.000000,,2013-01-12 00:43:00,
2013-01-11 19:53:00,59.0,56.0,-100.00,SSW,199,6.0,9.0,91,0.00,,,0.50,0.000000,,2013-01-12 00:53:00,
2013-01-11 20:03:00,59.0,56.0,-100.00,SSW,199,6.0,9.0,91,0.00,,,0.50,0.000000,,2013-01-12 01:03:00,
2013-01-11 20:33:00,58.0,57.0,-100.00,South,189,6.0,9.0,95,0.00,,,0.50,0.000000,,2013-01-12 01:33:00,
2013-01-11 20:43:00,58.0,57.0,-100.00,South,189,6.0,9.0,95,0.00,,,0.50,0.000000,,2013-01-12 01:43:00,
2013-01-11 20:53:00,58.0,57.0,-100.00,South,189,6.0,9.0,95,0.00,,,0.50,0.000000,,2013-01-12 01:53:00,
2013-01-11 21:02:00,58.0,57.0,-100.00,South,189,6.0,9.0,95,0.00,,,0.50,0.000000,,2013-01-12 02:02:00,
2013-01-11 21:33:00,58.0,57.0,-100.00,SSW,193,6.0,9.0,97,0.00,,,0.50,0.000000,,2013-01-12 02:33:00,
2013-01-11 21:43:00,58.0,57.0,-100.00,SSW,193,6.0,9.0,97,0.00,,,0.50,0.000000,,2013-01-12 02:43:00,
2013-01-11 21:53:00,58.0,57.0,-100.00,SSW,193,6.0,9.0,97,0.00,,,0.50,0.000000,,2013-01-12 02:53:00,
2013-01-11 22:03:00,58.0,57.0,-100.00,SSW,193,6.0,9.0,97,0.00,,,0.50,0.000000,,2013-01-12 03:03:00,
2013-01-11 22:33:00,58.0,57.0,-100.00,SSW,196,7.0,9.0,98,0.00,,,0.50,0.000000,,2013-01-12 03:33:00,
2013-01-11 22:43:00,58.0,57.0,-100.00,SSW,196,7.0,9.0,98,0.00,,,0.50,0.000000,,2013-01-12 03:43:00,
2013-01-11 22:53:00,58.0,57.0,-100.00,SSW,196,7.0,9.0,98,0.00,,,0.50,0.000000,,2013-01-12 03:53:00,
2013-01-11 23:02:00,58.0,57.0,-100.00,SSW,196,7.0,9.0,98,0.00,,,0.50,0.000000,,2013-01-12 04:02:00,
2013-01-11 23:33:00,58.0,57.0,-100.00,SSW,203,7.0,13.0,97,0.00,,,0.50,0.000000,,2013-01-12 04:33:00,
2013-01-11 23:43:00,58.0,57.0,-100.00,SSW,203,7.0,13.0,97,0.00,,,0.50,0.000000,,2013-01-12 04:43:00,
2013-01-11 23:52:00,58.0,57.0,-100.00,SSW,203,7.0,13.0,97,0.00,,,0.50,0.000000,,2013-01-12 04:52:00,